Location: Poughquag
(41.6090°N, 73.6820°W)
Time: 14:22:54
(UTC-05:00)

Altair - All Passes

Search period start: 26 February 2020 00:00
Search period end: 07 March 2020 00:00
Orbit: 1502 x 1682 km, 47.2° (Epoch: 25 February)

Date Brightness Start Highest point End Pass type
(mag) Time Alt. Az. Time Alt. Az. Time Alt. Az.
26 Feb - 01:32:40 10° W 01:42:06 69° NNW 01:51:56 10° ENE visible
26 Feb - 03:38:15 10° WNW 03:47:53 68° NNE 03:57:53 10° E visible
26 Feb - 05:43:15 10° WNW 05:53:00 71° SW 06:03:03 10° SE visible
26 Feb - 07:49:15 10° W 07:56:39 24° SW 08:04:11 10° S daylight
26 Feb - 21:03:16 10° SSE 21:08:54 18° SE 21:14:36 10° E night (unlit)
26 Feb - 23:03:00 10° SW 23:12:04 62° SE 23:21:29 10° ENE night (unlit)
27 Feb - 01:07:27 10° W 01:16:52 71° NNW 01:26:40 10° ENE visible
27 Feb - 03:13:02 10° WNW 03:22:38 66° N 03:32:34 10° E visible
27 Feb - 05:18:03 10° WNW 05:27:50 75° SSW 05:37:53 10° SE visible
27 Feb - 07:23:50 10° WNW 07:31:35 27° SW 07:39:29 10° S daylight
27 Feb - 20:38:56 10° SSE 20:43:54 16° ESE 20:48:54 10° E night (unlit)
27 Feb - 22:38:00 10° SW 22:46:57 58° SE 22:56:15 10° ENE night (unlit)
28 Feb - 00:42:15 10° WSW 00:51:38 73° NNW 01:01:25 10° ENE visible
28 Feb - 02:47:50 10° WNW 02:57:21 65° N 03:07:16 10° E visible
28 Feb - 04:52:52 10° WNW 05:02:38 79° SSW 05:12:43 10° SE visible
28 Feb - 06:58:27 10° WNW 07:06:31 29° SW 07:14:43 10° S daylight
28 Feb - 20:14:47 10° SSE 20:18:54 14° ESE 20:23:02 10° E visible
28 Feb - 22:13:00 10° SSW 22:21:51 53° SE 22:31:00 10° ENE night (unlit)
29 Feb - 00:17:03 10° WSW 00:26:25 75° NNW 00:36:10 10° ENE visible
29 Feb - 02:22:37 10° WNW 02:32:06 64° N 02:41:57 10° E visible
29 Feb - 04:27:42 10° WNW 04:37:27 83° SSW 04:47:31 10° SE visible
29 Feb - 06:33:07 10° WNW 06:41:25 32° SW 06:49:55 10° S daylight
29 Feb - 19:50:58 10° SE 19:53:54 12° ESE 19:56:51 10° ESE visible
29 Feb - 21:48:02 10° SSW 21:56:45 50° SE 22:05:45 10° ENE visible
29 Feb - 23:51:51 10° WSW 00:01:11 77° NNW 00:10:55 10° ENE visible
01 Mar - 01:57:24 10° WNW 02:06:50 63° N 02:16:38 10° E visible
01 Mar - 04:02:31 10° WNW 04:12:15 87° SSW 04:22:19 10° ESE visible
01 Mar - 06:07:48 10° WNW 06:16:20 35° SW 06:25:04 10° SSE daylight
01 Mar - 21:23:06 10° SSW 21:31:40 46° SE 21:40:29 10° ENE visible
01 Mar - 23:26:40 10° WSW 23:35:59 80° NNW 23:45:41 10° ENE visible
02 Mar - 01:32:11 10° WNW 01:41:34 63° N 01:51:20 10° E visible
02 Mar - 03:37:21 10° WNW 03:47:02 90° NNE 03:57:06 10° ESE visible
02 Mar - 05:42:31 10° WNW 05:51:14 38° SW 06:00:10 10° SSE visible
02 Mar - 20:58:11 10° SSW 21:06:36 42° SE 21:15:13 10° ENE visible
02 Mar - 23:01:29 10° WSW 23:10:47 83° NNW 23:20:27 10° ENE night (unlit)
03 Mar - 01:06:58 10° W 01:16:19 63° N 01:26:02 10° E visible
03 Mar - 03:12:10 10° WNW 03:21:50 86° NNE 03:31:52 10° ESE visible
03 Mar - 05:17:15 10° WNW 05:26:07 41° SW 05:35:14 10° SSE visible
03 Mar - 20:33:18 10° SSW 20:41:31 39° SE 20:49:56 10° ENE visible
03 Mar - 22:36:19 10° WSW 22:45:36 87° NNW 22:55:13 10° ENE visible
04 Mar - 00:41:44 10° W 00:51:03 63° N 01:00:44 10° E visible
04 Mar - 02:47:00 10° WNW 02:56:37 83° NNE 03:06:37 10° ESE visible
04 Mar - 04:52:00 10° WNW 05:01:00 44° SW 05:10:17 10° SSE visible
04 Mar - 20:08:27 10° SSW 20:16:29 35° SE 20:24:39 10° ENE visible
04 Mar - 22:11:10 10° WSW 22:20:25 90° S 22:30:01 10° ENE visible
05 Mar - 00:16:31 10° W 00:25:48 63° N 00:35:26 10° ENE visible
05 Mar - 02:21:49 10° WNW 02:31:24 80° NNE 02:41:21 10° ESE visible
05 Mar - 04:26:46 10° WNW 04:35:53 48° SW 04:45:17 10° SSE visible
05 Mar - 06:35:54 10° WSW 06:38:56 12° WSW 06:42:00 10° SW daylight
05 Mar - 19:43:38 10° S 19:51:25 32° SE 19:59:19 10° ENE visible
05 Mar - 21:46:02 10° WSW 21:55:15 86° SSE 22:04:47 10° ENE visible
05 Mar - 23:51:17 10° W 00:00:33 63° N 00:10:09 10° ENE visible
06 Mar - 01:56:38 10° WNW 02:06:11 77° NNE 02:16:06 10° ESE visible
06 Mar - 04:01:34 10° WNW 04:10:46 51° SW 04:20:16 10° SSE visible
06 Mar - 06:09:39 10° W 06:13:54 14° WSW 06:18:12 10° SSW daylight
06 Mar - 19:18:52 10° S 19:26:23 30° SE 19:34:00 10° ENE visible
06 Mar - 21:20:54 10° SW 21:30:06 82° SSE 21:39:34 10° ENE visible
06 Mar - 23:26:05 10° W 23:35:18 64° N 23:44:52 10° ENE visible
